To NAV CANADA Home Page Login to a new session Search on AWWS site Feedback and Comments Disclaimer Vers la page française équivalente Tips FAQ What's new on the site To the Forecasts and Observations / NOTAM section To "File a Flight Plan" website Publications and other links Update of the User's profile FIC Telephone Numbers My Weather Data Folder Route Weather Data Regional Weather Data Local Weather Data To the Forecasts and Observations / NOTAM section
Request Generated 03/31/2015 at 18:01:59 UTC . Weather information available at that time is displayed.

METAR/TAF

CHESTERFIELD INLET/NU    

METAR CYCS 311800Z 32011KT 15SM IC BKN210 M24/M28 A2994 RMK CC7
SLP141=
METAR CYCS 311700Z 30008KT 15SM IC SCT210 M25/M29 A2994 RMK CC4
SLP139=
METAR CYCS 311600Z 31008KT 15SM BKN210 M27/M30 A2995 RMK CC7 SLP144=

CYCS - No TAF is issued for this station

Your time UTC time
Weather data provided by Environment Canada and NAV CANADA